TimeCST,TemperatureF,Dew PointF,Humidity,Sea Level PressureIn,VisibilityMPH,Wind Direction,Wind SpeedMPH,Gust SpeedMPH,PrecipitationIn,Events,Conditions,WindDirDegrees,DateUTC
12:10 AM,35.6,35.6,100,29.76,1.2,Calm,Calm,-,N/A,,Overcast,0,2012-12-02 06:10:00
12:25 AM,35.6,35.6,100,29.76,0.8,Calm,Calm,-,N/A,,Overcast,0,2012-12-02 06:25:00
12:39 AM,37.4,35.6,93,29.76,1.2,Calm,Calm,-,N/A,,Overcast,0,2012-12-02 06:39:00
12:54 AM,36.0,36.0,100,29.80,1.2,Calm,Calm,-,N/A,,Overcast,0,2012-12-02 06:54:00
1:42 AM,37.4,35.6,93,29.78,1.2,Calm,Calm,-,N/A,,Overcast,0,2012-12-02 07:42:00
1:54 AM,37.0,36.0,96,29.82,1.2,Calm,Calm,-,N/A,,Overcast,0,2012-12-02 07:54:00
2:43 AM,37.4,37.4,100,29.78,1.5,Calm,Calm,-,N/A,,Overcast,0,2012-12-02 08:43:00
2:48 AM,37.4,37.4,100,29.78,1.8,Calm,Calm,-,N/A,,Overcast,0,2012-12-02 08:48:00
2:54 AM,37.9,37.0,97,29.83,2.0,Calm,Calm,-,N/A,,Overcast,0,2012-12-02 08:54:00
3:16 AM,37.4,37.4,100,29.79,2.0,Calm,Calm,-,N/A,,Overcast,0,2012-12-02 09:16:00
3:18 AM,37.4,37.4,100,29.79,1.8,Calm,Calm,-,N/A,,Overcast,0,2012-12-02 09:18:00
3:33 AM,37.4,37.4,100,29.78,2.5,NNE,5.8,-,0.00,Rain,Light Rain,20,2012-12-02 09:33:00
3:41 AM,37.4,37.4,100,29.77,3.0,North,4.6,-,0.00,Rain,Light Rain,360,2012-12-02 09:41:00
3:54 AM,37.9,37.0,97,29.81,3.0,NNW,5.8,-,0.00,,Overcast,340,2012-12-02 09:54:00
4:04 AM,37.4,37.4,100,29.79,1.8,WSW,4.6,-,N/A,,Overcast,250,2012-12-02 10:04:00
4:19 AM,37.4,37.4,100,29.81,3.0,Calm,Calm,-,N/A,,Overcast,0,2012-12-02 10:19:00
4:45 AM,37.4,37.4,100,29.81,2.0,Calm,Calm,-,N/A,,Overcast,0,2012-12-02 10:45:00
4:54 AM,37.9,37.0,97,29.85,2.0,Calm,Calm,-,N/A,,Overcast,0,2012-12-02 10:54:00
5:07 AM,37.4,37.4,100,29.81,2.5,NNW,3.5,-,N/A,,Overcast,330,2012-12-02 11:07:00
5:33 AM,37.4,37.4,100,29.82,3.0,WNW,3.5,-,N/A,,Overcast,300,2012-12-02 11:33:00
5:54 AM,37.9,37.0,97,29.87,3.0,NNW,3.5,-,N/A,,Overcast,330,2012-12-02 11:54:00
6:54 AM,37.9,36.0,93,29.90,7.0,NNW,5.8,-,N/A,,Overcast,340,2012-12-02 12:54:00
7:54 AM,37.0,36.0,96,29.93,6.0,NW,5.8,-,N/A,,Overcast,320,2012-12-02 13:54:00
8:54 AM,37.0,35.1,93,29.96,7.0,NNW,8.1,-,N/A,,Overcast,330,2012-12-02 14:54:00
9:54 AM,37.9,35.1,89,29.97,6.0,NNW,5.8,-,N/A,,Overcast,330,2012-12-02 15:54:00
10:54 AM,37.9,35.1,89,29.98,6.0,NW,9.2,-,N/A,,Overcast,320,2012-12-02 16:54:00
11:54 AM,39.0,34.0,82,29.97,7.0,WNW,5.8,-,N/A,,Overcast,300,2012-12-02 17:54:00
12:54 PM,37.9,34.0,86,29.99,7.0,NW,6.9,-,N/A,,Overcast,320,2012-12-02 18:54:00
1:54 PM,37.9,34.0,86,29.99,7.0,West,4.6,-,N/A,,Overcast,280,2012-12-02 19:54:00
3:54 PM,37.9,34.0,86,30.03,6.0,Calm,Calm,-,N/A,,Overcast,0,2012-12-02 21:54:00
4:54 PM,37.0,34.0,89,30.04,7.0,Calm,Calm,-,N/A,,Overcast,0,2012-12-02 22:54:00
5:54 PM,37.0,34.0,89,30.03,6.0,South,4.6,-,N/A,,Overcast,170,2012-12-02 23:54:00
6:54 PM,37.0,35.1,93,30.04,7.0,South,8.1,-,N/A,,Overcast,170,2012-12-03 00:54:00
7:54 PM,37.0,35.1,93,30.04,7.0,South,8.1,-,N/A,,Overcast,170,2012-12-03 01:54:00
8:52 PM,37.4,35.6,93,30.00,7.0,South,6.9,-,N/A,,Overcast,170,2012-12-03 02:52:00
8:54 PM,37.0,35.1,93,30.04,7.0,South,8.1,-,N/A,,Overcast,180,2012-12-03 02:54:00
9:54 PM,36.0,35.1,97,30.04,4.0,SSE,8.1,-,N/A,,Overcast,160,2012-12-03 03:54:00
10:50 PM,35.6,35.6,100,30.00,2.5,South,6.9,-,N/A,,Overcast,170,2012-12-03 04:50:00
10:54 PM,36.0,35.1,97,30.04,2.5,South,11.5,-,N/A,,Overcast,170,2012-12-03 04:54:00
11:35 PM,37.4,35.6,93,30.00,3.0,SSE,8.1,-,N/A,,Overcast,150,2012-12-03 05:35:00
11:54 PM,37.0,36.0,96,30.04,3.0,SSE,9.2,-,N/A,,Overcast,160,2012-12-03 05:54:00